EW8705 Weather Reports


Display with metric or nautical units.
time (UTC)temp
F
wind
direction
speed
MPH
gust
MPH
rain 1hr
in
rain 24hr
in
rain mn
in
humidity
%
barometer
mb
20181120220013 59 167 1.0 4.0 0.00 0.00 0.00 89 1018.7
20181120214514 58 148 1.0 4.0 0.00 0.00 0.00 89 1018.8
20181120213015 59 163 1.0 3.0 0.00 0.00 0.00 88 1018.9
20181120211509 60 154 1.0 3.0 0.00 0.00 0.00 87 1018.9
20181120210025 60 133 1.0 3.0 0.00 0.00 0.00 87 1018.9
20181120204540 60 160 1.0 2.0 0.00 0.00 0.00 89 1019.1
20181120203009 60 160 2.0 4.0 0.00 0.00 0.00 90 1019.2
20181120201514 61 152 3.0 7.0 0.00 0.00 0.00 91 1019.5
20181120200012 61 158 2.0 4.0 0.00 0.00 0.00 91 1019.6
20181120194518 61 153 0.0 3.0 0.00 0.00 0.00 90 1019.5
20181120193013 62 145 1.0 2.0 0.00 0.00 0.00 89 1019.3
20181120191505 62 202 1.0 5.0 0.00 0.00 0.00 89 1019.3
20181120190001 62 161 3.0 6.0 0.00 0.00 0.00 89 1019.5
20181120184635 62 138 3.0 5.0 0.00 0.00 0.00 91 1019.5
20181120181644 64 145 0.0 2.0 0.00 0.00 0.00 90 1019.4
20181120180216 64 169 0.0 2.0 0.00 0.00 0.00 89 1019.4
20181120174642 65 145 2.0 4.0 0.00 0.00 0.00 89 1019.3
20181120173151 66 184 1.0 3.0 0.00 0.00 0.00 87 1019.5
20181120171704 66 200 2.0 4.0 0.00 0.00 0.00 87 1019.4
20181120170208 65 203 1.0 3.0 0.00 0.00 0.00 88 1019.4
20181120164739 66 217 0.0 4.0 0.00 0.00 0.00 88 1019.5
20181120163133 65 225 0.0 1.0 0.00 0.00 0.00 88 1019.6
20181120161700 65 162 0.0 2.0 0.00 0.00 0.00 89 1019.5
20181120160113 65 166 1.0 3.0 0.00 0.00 0.00 89 1019.5
20181120154632 65 150 1.0 2.0 0.00 0.00 0.00 87 1019.5
20181120153215 66 167 0.0 0.0 0.00 0.00 0.00 85 1019.6
20181120151630 67 167 0.0 0.0 0.00 0.00 0.00 86 1019.5
20181120150111 68 167 0.0 1.0 0.00 0.00 0.00 83 1019.4
20181120144618 69 211 0.0 2.0 0.00 0.00 0.00 81 1019.6
20181120143115 69 176 0.0 2.0 0.00 0.00 0.00 80 1019.4
20181120141656 69 215 0.0 2.0 0.00 0.00 0.00 81 1019.5
20181120140122 69 308 1.0 3.0 0.00 0.00 0.00 81 1019.5
20181120134721 69 319 0.0 5.0 0.00 0.00 0.00 79 1019.5
20181120133105 70 316 0.0 3.0 0.00 0.00 0.00 78 1019.1
20181120131627 70 328 2.0 5.0 0.00 0.00 0.00 74 1019.2
20181120130132 71 360 3.0 8.0 0.00 0.00 0.00 77 1019.0
20181120124706 71 332 3.0 8.0 0.00 0.00 0.00 75 1018.9
20181120121556 72 341 5.0 7.0 0.00 0.00 0.00 72 1018.8
20181120114600 73 298 3.0 11.0 0.00 0.00 0.00 72 1018.9
20181120113055 73 302 4.0 8.0 0.00 0.00 0.00 72 1019.0
20181120111630 73 317 5.0 10.0 0.00 0.00 0.00 71 1019.0
20181120104651 73 360 4.0 11.0 0.00 0.00 0.00 69 1019.3
20181120103121 73 328 5.0 9.0 0.00 0.00 0.00 66 1019.4
20181120101630 73 341 4.0 9.0 0.00 0.00 0.00 68 1019.5
20181120100115 73 340 3.0 9.0 0.00 0.00 0.00 64 1019.5
20181120094600 73 304 4.0 8.0 0.00 0.00 0.00 60 1019.8
20181120093040 73 326 2.0 7.0 0.00 0.00 0.00 59 1019.8
20181120091538 74 339 4.0 8.0 0.00 0.00 0.00 58 1020.0
20181120090030 74 275 1.0 3.0 0.00 0.00 0.00 57 1020.1
20181120084555 73 4 3.0 8.0 0.00 0.00 0.00 55 1020.3
20181120083048 73 27 2.0 7.0 0.00 0.00 0.00 56 1020.5
20181120081544 73 323 2.0 4.0 0.00 0.00 0.00 54 1020.5
20181120080046 72 11 1.0 3.0 0.00 0.00 0.00 53 1020.7
20181120074557 72 49 1.0 3.0 0.00 0.00 0.00 53 1020.8
20181120073030 71 43 1.0 3.0 0.00 0.00 0.00 54 1020.9
20181120071534 71 41 2.0 3.0 0.00 0.00 0.00 54 1021.0
20181120070027 71 359 0.0 2.0 0.00 0.00 0.00 54 1021.0
20181120064527 69 122 0.0 1.0 0.00 0.00 0.00 59 1020.8
20181120063009 68 130 0.0 1.0 0.00 0.00 0.00 60 1020.6
20181120061506 66 165 1.0 4.0 0.00 0.00 0.00 64 1020.5
20181120060146 64 169 2.0 4.0 0.00 0.00 0.00 66 1020.3
20181120043046 56 179 2.0 4.0 0.00 0.00 0.00 76 1019.9
20181120041612 56 148 3.0 4.0 0.00 0.00 0.00 77 1019.9
20181120040051 56 151 2.0 3.0 0.00 0.00 0.00 76 1019.6
20181120034533 57 165 3.0 6.0 0.00 0.00 0.00 74 1019.3
20181120033040 55 155 2.0 5.0 0.00 0.00 0.00 78 1019.3
20181120031543 55 162 3.0 5.0 0.00 0.00 0.00 79 1019.0
20181120030031 55 139 2.0 5.0 0.00 0.00 0.00 78 1019.0
20181120024517 56 162 2.0 4.0 0.00 0.00 0.00 77 1018.9
20181120023021 56 161 3.0 4.0 0.00 0.00 0.00 75 1018.9
20181120021525 56 153 3.0 4.0 0.00 0.00 0.00 76 1018.9
20181120020053 56 150 3.0 5.0 0.00 0.00 0.00 77 1018.8
20181120014511 56 155 3.0 4.0 0.00 0.00 0.00 77 1018.7
20181120013006 55 148 2.0 4.0 0.00 0.00 0.00 78 1018.5
20181120011509 55 146 2.0 3.0 0.00 0.00 0.00 78 1018.4
20181120010006 56 148 2.0 3.0 0.00 0.00 0.00 78 1018.2
20181120004530 55 158 1.0 5.0 0.00 0.00 0.00 78 1018.0
20181120003004 56 152 2.0 4.0 0.00 0.00 0.00 77 1018.1
20181120001500 56 141 3.0 4.0 0.00 0.00 0.00 77 1018.2
20181120000308 56 172 2.0 4.0 0.00 0.00 0.00 77 1018.2
20181119234651 56 162 2.0 4.0 0.00 0.00 0.00 78 1018.2
20181119233154 55 151 2.0 4.0 0.00 0.00 0.00 80 1018.2
20181119231647 56 146 2.0 4.0 0.00 0.00 0.00 79 1018.3
20181119230204 56 161 2.0 5.0 0.00 0.00 0.00 78 1018.3
20181119224700 56 146 1.0 4.0 0.00 0.00 0.00 78 1018.5
20181119223115 56 140 2.0 3.0 0.00 0.00 0.00 78 1018.4